Change the Weather History Date:

Monday, April 23, 2012

  Actual Average Record
Temperature  
Mean Temperature 59 °F 39 °F  
Max Temperature 78 °F 51 °F 78 °F (1977)
Min Temperature 39 °F 27 °F 16 °F (2011)
Degree Days  
Heating Degree Days 6 26  
Month to date heating degree days 582 673  
Since 1 July heating degree days 7643 8462  
Cooling Degree Days 0 0  
Month to date cooling degree days 0 0  
Year to date cooling degree days 0 0  
Growing Degree Days 7 (Base 50)    
Moisture  
Dew Point 37 °F    
Average Humidity 50    
Maximum Humidity 79    
Minimum Humidity 21    
Precipitation  
Precipitation T in 0.06 in 0.84 in (1996)
Month to date precipitation 1.67 1.49  
Year to date precipitation 13.29 7.16  
Sea Level Pressure  
Sea Level Pressure 29.93 in    
Wind  
Wind Speed 4 mph (SE)    
Max Wind Speed 18 mph    
Max Gust Speed 23 mph    
Visibility 10 miles    
Events      
T = Trace of Precipitation, MM = Missing Value Source: NWS Daily Summary

Daily Weather History Graph

Daily Weather History Graph

Search for Another Location

Airport or City:

Trip Planner

Search our weather history database for the weather conditions in past years. The results will help you decide how hot, cold, wet, or windy it might be!

Date:

Astronomy

Apr. 23, 2012 Rise Set
Actual Time 6:45 AM MDT 8:40 PM MDT
Civil Twilight 6:14 AM MDT 9:12 PM MDT
Nautical Twilight 5:35 AM MDT 9:50 PM MDT
Astronomical Twilight 4:53 AM MDT 10:33 PM MDT
Moon 7:53 AM MDT (4/23) 11:20 PM MDT (4/23)
Length of Visible Light 14h 58m
Length of Day
13h 55m
Waxing Crescent, 5% of the Moon is Illuminated
Apr 23
Waxing Crescent
Apr 29
First Quarter
May 5
Full
May 12
Last Quarter
May 20
New

Hourly Weather History & Observations

Time (MDT) Temp. Windchill Dew Point Humidity Pressure Visibility Wind Dir Wind Speed Gust Speed Precip Events Conditions
1:51 AM 45.0 °F - 34.0 °F 65% 29.96 in 10.0 mi Calm Calm - N/A   Clear
2:51 AM 44.1 °F 42.5 °F 36.0 °F 73% 29.95 in 10.0 mi East 3.5 mph - N/A   Mostly Cloudy
4:51 AM 42.1 °F - 34.0 °F 73% 29.94 in 10.0 mi Calm Calm - N/A   Clear
5:51 AM 39.9 °F - 34.0 °F 79% 29.93 in 10.0 mi Calm Calm - N/A   Clear
6:51 AM 39.9 °F - 34.0 °F 79% 29.96 in 10.0 mi Calm Calm - N/A   Clear
7:51 AM 41.0 °F 37.1 °F 35.1 °F 79% 29.96 in 10.0 mi NW 5.8 mph - N/A   Scattered Clouds
8:51 AM 44.1 °F 41.5 °F 36.0 °F 73% 29.99 in 10.0 mi South 4.6 mph - N/A   Clear
9:51 AM 48.0 °F - 39.0 °F 71% 30.02 in 10.0 mi East 6.9 mph - N/A   Mostly Cloudy
10:51 AM 48.9 °F - 37.0 °F 64% 30.03 in 10.0 mi Calm Calm - N/A   Overcast
11:51 AM 57.9 °F - 39.0 °F 49% 29.98 in 10.0 mi Calm Calm - N/A   Clear
12:51 PM 64.0 °F - 39.9 °F 41% 29.96 in 10.0 mi South 5.8 mph - N/A   Clear
1:51 PM 66.9 °F - 42.1 °F 40% 29.95 in 10.0 mi North 6.9 mph - N/A   Scattered Clouds
2:51 PM 71.1 °F - 39.9 °F 32% 29.92 in 10.0 mi North 6.9 mph - N/A   Partly Cloudy
3:51 PM 75.0 °F - 39.9 °F 28% 29.89 in 10.0 mi NNW 8.1 mph - N/A   Clear
4:51 PM 75.9 °F - 35.1 °F 23% 29.87 in 10.0 mi SSW 6.9 mph - N/A   Clear
5:51 PM 75.0 °F - 34.0 °F 22% 29.85 in 10.0 mi South 4.6 mph - N/A   Clear
6:51 PM 73.0 °F - 34.0 °F 24% 29.85 in 10.0 mi SSW 5.8 mph - N/A   Partly Cloudy
7:51 PM 68.0 °F - 41.0 °F 37% 29.85 in 10.0 mi NNE 3.5 mph - N/A   Clear
8:51 PM 61.0 °F - 39.0 °F 44% 29.86 in 10.0 mi Calm Calm - N/A   Scattered Clouds
9:51 PM 55.0 °F - 37.9 °F 53% 29.88 in 10.0 mi Calm Calm - N/A   Partly Cloudy
10:51 PM 54.0 °F - 37.0 °F 53% 29.90 in 10.0 mi Variable 5.8 mph - N/A   Mostly Cloudy
11:51 PM 53.1 °F - 37.9 °F 57% 29.91 in 10.0 mi Calm Calm - 0.00 in   Overcast